Weather History for KEKN - February, 2013

Change the Weather History Date:

Monday, February 11, 2013

  Actual Average Record
Temperature  
Mean Temperature 50 °F 31 °F  
Max Temperature 60 °F 42 °F 77 °F (1932)
Min Temperature 39 °F 21 °F -20 °F (1899)
Degree Days  
Heating Degree Days 15 34  
Month to date heating degree days 406 379  
Since 1 July heating degree days 3659 3780  
Cooling Degree Days 0 0  
Month to date cooling degree days 0 0  
Year to date cooling degree days 0 0  
Moisture  
Dew Point 34 °F    
Average Humidity 52    
Maximum Humidity 77    
Minimum Humidity 26    
Precipitation  
Precipitation 0.10 in 0.11 in 1.12 in (1938)
Month to date precipitation 0.96 1.17  
Year to date precipitation 5.47 4.40  
Snow  
Snow 0.00 in - - ()
Month to date snowfall 11.4  
Since 1 September snowfall 49.5  
Snow Depth 0.00 in    
Sea Level Pressure  
Sea Level Pressure 29.90 in    
Wind  
Wind Speed 12 mph (SW)    
Max Wind Speed 26 mph    
Max Gust Speed 40 mph    
Visibility 9 miles    
Events Rain    
T = Trace of Precipitation, MM = Missing Value Source: NWS Daily Summary

Daily Weather History Graph

Daily Weather History Graph

Search for Another Location

Airport or City:

Trip Planner

Search our weather history database for the weather conditions in past years. The results will help you decide how hot, cold, wet, or windy it might be!

Date:

Astronomy

Feb. 11, 2013 Rise Set
Actual Time 7:15 AM EST 5:52 PM EST
Civil Twilight 6:47 AM EST 6:20 PM EST
Nautical Twilight 6:16 AM EST 6:51 PM EST
Astronomical Twilight 5:45 AM EST 7:22 PM EST
Moon 7:40 AM EST (2/11) 7:46 PM EST (2/11)
Length of Visible Light 11h 32m
Length of Day
10h 37m
Waxing Crescent, 3% of the Moon is Illuminated
Feb 11
Waxing Crescent
Feb 17
First Quarter
Feb 25
Full
Mar 4
Last Quarter
Mar 11
New

Hourly Weather History & Observations

Time (EST) Temp. Windchill Dew Point Humidity Pressure Visibility Wind Dir Wind Speed Gust Speed Precip Events Conditions
12:51 AM 41.0 °F 34.3 °F 34.0 °F 76% 30.04 in 10.0 mi SSE 11.5 mph - 0.00 in   Overcast
1:51 AM 44.1 °F 38.6 °F 35.1 °F 71% 29.98 in 10.0 mi SE 10.4 mph - N/A   Overcast
2:51 AM 45.0 °F 39.7 °F 37.0 °F 74% 29.97 in 10.0 mi SSE 10.4 mph - N/A   Overcast
3:51 AM 46.0 °F 41.0 °F 37.9 °F 73% 29.96 in 10.0 mi South 10.4 mph - 0.00 in Rain Light Rain
4:51 AM 46.0 °F 41.9 °F 37.9 °F 73% 29.95 in 10.0 mi SSE 8.1 mph - 0.00 in   Overcast
5:51 AM 46.0 °F 42.5 °F 39.0 °F 76% 29.95 in 10.0 mi SSE 6.9 mph - N/A   Overcast
6:51 AM 46.9 °F - 39.9 °F 77% 29.93 in 10.0 mi SSE 5.8 mph - 0.00 in   Overcast
7:51 AM 46.0 °F 43.1 °F 41.0 °F 83% 29.93 in 3.0 mi South 5.8 mph - 0.02 in Rain Heavy Rain
7:55 AM 46.4 °F 42.4 °F 42.8 °F 87% 29.89 in 1.8 mi SSE 8.1 mph - 0.04 in Rain Heavy Rain
8:02 AM 46.4 °F 42.9 °F 42.8 °F 87% 29.89 in 3.0 mi SSE 6.9 mph - 0.07 in Rain Light Rain
8:51 AM 46.0 °F - 44.1 °F 93% 29.94 in 10.0 mi Calm Calm - 0.08 in   Overcast
9:37 AM 51.8 °F - 44.6 °F 76% 29.89 in 10.0 mi South 4.6 mph - 0.00 in   Mostly Cloudy
9:51 AM 53.1 °F - 46.0 °F 77% 29.91 in 10.0 mi SSW 9.2 mph - 0.00 in   Overcast
10:51 AM 55.9 °F - 45.0 °F 67% 29.89 in 10.0 mi WSW 18.4 mph 31.1 mph N/A   Overcast
11:51 AM 57.0 °F - 44.1 °F 62% 29.86 in 10.0 mi WSW 10.4 mph - N/A   Overcast
12:51 PM 59.0 °F - 44.1 °F 58% 29.83 in 10.0 mi West 11.5 mph - N/A   Partly Cloudy
1:51 PM 60.1 °F - 41.0 °F 49% 29.80 in 10.0 mi WSW 11.5 mph 18.4 mph N/A   Partly Cloudy
2:51 PM 59.0 °F - 28.9 °F 32% 29.79 in 10.0 mi SW 26.5 mph 38.0 mph N/A   Clear
3:51 PM 57.9 °F - 27.0 °F 31% 29.80 in 10.0 mi SW 15.0 mph 23.0 mph N/A   Clear
4:51 PM 54.0 °F - 23.0 °F 30% 29.80 in 10.0 mi WSW 16.1 mph 24.2 mph N/A   Clear
5:51 PM 53.1 °F - 19.9 °F 27% 29.81 in 10.0 mi West 11.5 mph 19.6 mph N/A   Clear
6:51 PM 50.0 °F - 21.9 °F 33% 29.83 in 10.0 mi WSW 9.2 mph - N/A   Clear
7:51 PM 50.0 °F - 17.1 °F 27% 29.88 in 10.0 mi West 18.4 mph 31.1 mph N/A   Clear
8:51 PM 46.9 °F - 19.9 °F 34% 29.90 in 10.0 mi West 15.0 mph 23.0 mph N/A   Clear
9:51 PM 44.1 °F 36.5 °F 21.9 °F 42% 29.93 in 10.0 mi West 17.3 mph 28.8 mph N/A   Clear
10:51 PM 42.1 °F 33.6 °F 24.1 °F 49% 29.95 in 10.0 mi West 18.4 mph 34.5 mph N/A   Scattered Clouds
11:51 PM 41.0 °F 34.3 °F 24.1 °F 51% 29.97 in 10.0 mi West 11.5 mph 26.5 mph N/A   Overcast